Location: Cadeilhan
(42.8161°N, 0.3161°E)
Time: 14:56:59
(UTC+00:00)

Cosmos 1842 Rocket - Pass Details

Date: 18 February 2020
Orbit: 605 x 635 km, 82.5° (Epoch: 27 March)

Event Time Altitude Azimuth Distance (km) Brightness Sun altitude
Exits shadow 05:40:11 14° 234° (SW) 1,743 5.4 -13.9°
Maximum altitude 05:43:11 28° 286° (WNW) 1,206 4.5 -13.4°
Drops below altitude 10° 05:47:03 10° 345° (NNW) 2,028 6.0 -12.7°
Sets 05:49:35 0° 358° (N) 2,943 7.0 -12.2°
